| time (UTC) | temp F | wind direction | speed MPH | gust MPH | rain 1hr in | rain 24hr in | rain mn in | humidity % | barometer mb |
| 20260505003057 | 66 | 150 | 2.0 | 7.0 | 0.00 | 0.00 | 0.00 | 38 | 1013.2 |
| 20260505001556 | 67 | 167 | 2.0 | 7.0 | 0.00 | 0.00 | 0.00 | 36 | 1013.2 |
| 20260505000114 | 67 | 183 | 2.0 | 5.0 | 0.00 | 0.00 | 0.00 | 35 | 1013.2 |
| 20260504234555 | 68 | 201 | 1.0 | 11.0 | 0.00 | 0.00 | 0.00 | 34 | 1013.2 |
| 20260504233059 | 69 | 157 | 4.0 | 10.0 | 0.00 | 0.00 | 0.00 | 33 | 1013.1 |
| 20260504231555 | 70 | 170 | 3.0 | 11.0 | 0.00 | 0.00 | 0.00 | 33 | 1013.1 |
| 20260504230107 | 71 | 187 | 6.0 | 15.0 | 0.00 | 0.00 | 0.00 | 34 | 1012.9 |
| 20260504224558 | 72 | 183 | 5.0 | 11.0 | 0.00 | 0.00 | 0.00 | 34 | 1012.7 |
| 20260504223105 | 72 | 223 | 4.0 | 15.0 | 0.00 | 0.00 | 0.00 | 34 | 1012.8 |
| 20260504221604 | 73 | 185 | 4.0 | 11.0 | 0.00 | 0.00 | 0.00 | 33 | 1012.8 |
| 20260504220101 | 73 | 207 | 4.0 | 13.0 | 0.00 | 0.00 | 0.00 | 32 | 1012.7 |
| 20260504214558 | 73 | 217 | 5.0 | 12.0 | 0.00 | 0.00 | 0.00 | 32 | 1012.8 |
| 20260504213104 | 73 | 184 | 7.0 | 15.0 | 0.00 | 0.00 | 0.00 | 31 | 1012.8 |
| 20260504211619 | 74 | 161 | 5.0 | 14.0 | 0.00 | 0.00 | 0.00 | 31 | 1012.7 |
| 20260504210058 | 76 | 204 | 3.0 | 11.0 | 0.00 | 0.00 | 0.00 | 29 | 1012.7 |
| 20260504204602 | 75 | 151 | 5.0 | 10.0 | 0.00 | 0.00 | 0.00 | 29 | 1012.8 |
| 20260504203109 | 76 | 203 | 5.0 | 13.0 | 0.00 | 0.00 | 0.00 | 30 | 1013.0 |
| 20260504201600 | 75 | 161 | 3.0 | 10.0 | 0.00 | 0.00 | 0.00 | 29 | 1013.3 |
| 20260504200057 | 76 | 196 | 1.0 | 10.0 | 0.00 | 0.00 | 0.00 | 29 | 1013.3 |
| 20260504194556 | 75 | 169 | 5.0 | 12.0 | 0.00 | 0.00 | 0.00 | 29 | 1013.3 |
| 20260504193055 | 74 | 14 | 5.0 | 13.0 | 0.00 | 0.00 | 0.00 | 30 | 1013.5 |
| 20260504191607 | 74 | 170 | 3.0 | 13.0 | 0.00 | 0.00 | 0.00 | 31 | 1013.9 |
| 20260504190107 | 75 | 31 | 2.0 | 11.0 | 0.00 | 0.00 | 0.00 | 32 | 1014.1 |
| 20260504184605 | 74 | 161 | 2.0 | 12.0 | 0.00 | 0.00 | 0.00 | 33 | 1014.3 |
| 20260504183105 | 74 | 127 | 2.0 | 11.0 | 0.00 | 0.00 | 0.00 | 31 | 1014.6 |
| 20260504181601 | 73 | 222 | 2.0 | 11.0 | 0.00 | 0.00 | 0.00 | 32 | 1014.7 |
| 20260504180107 | 72 | 133 | 3.0 | 9.0 | 0.00 | 0.00 | 0.00 | 32 | 1014.9 |
| 20260504174556 | 72 | 202 | 3.0 | 9.0 | 0.00 | 0.00 | 0.00 | 33 | 1015.1 |
| 20260504173056 | 70 | 167 | 5.0 | 12.0 | 0.00 | 0.00 | 0.00 | 34 | 1014.9 |
| 20260504171556 | 72 | 192 | 4.0 | 9.0 | 0.00 | 0.00 | 0.00 | 34 | 1014.9 |
| 20260504160104 | 70 | 209 | 2.0 | 8.0 | 0.00 | 0.00 | 0.00 | 35 | 1016.1 |
| 20260504081608 | 38 | 0 | 0.0 | 2.0 | 0.00 | 0.00 | 0.00 | 87 | 1016.2 |
| 20260504080111 | 38 | 0 | 0.0 | 0.0 | 0.00 | 0.00 | 0.00 | 85 | 1016.1 |
| 20260504050106 | 45 | 233 | 0.0 | 3.0 | 0.00 | 0.00 | 0.00 | 72 | 1016.4 |
| 20260504044601 | 45 | 0 | 0.0 | 2.0 | 0.00 | 0.00 | 0.00 | 73 | 1016.5 |
| 20260504043056 | 46 | 0 | 0.0 | 2.0 | 0.00 | 0.00 | 0.00 | 72 | 1016.3 |
| 20260504041602 | 47 | 146 | 0.0 | 1.0 | 0.00 | 0.00 | 0.00 | 72 | 1016.1 |
| 20260504034600 | 49 | 360 | 0.0 | 4.0 | 0.00 | 0.00 | 0.00 | 66 | 1015.9 |
| 20260504033058 | 52 | 142 | 1.0 | 6.0 | 0.00 | 0.00 | 0.00 | 60 | 1016.1 |
| 20260504031600 | 54 | 196 | 2.0 | 6.0 | 0.00 | 0.00 | 0.00 | 56 | 1015.9 |
| 20260504030058 | 51 | 219 | 1.0 | 5.0 | 0.00 | 0.00 | 0.00 | 61 | 1016.2 |
| 20260504024614 | 51 | 360 | 0.0 | 2.0 | 0.00 | 0.00 | 0.00 | 62 | 1016.2 |
| 20260504023058 | 50 | 0 | 0.0 | 0.0 | 0.00 | 0.00 | 0.00 | 64 | 1016.1 |
| 20260504021556 | 50 | 0 | 0.0 | 0.0 | 0.00 | 0.00 | 0.00 | 64 | 1016.2 |
| 20260504020055 | 50 | 0 | 0.0 | 1.0 | 0.00 | 0.00 | 0.00 | 62 | 1016.0 |
| 20260504014603 | 52 | 0 | 0.0 | 1.0 | 0.00 | 0.00 | 0.00 | 60 | 1015.7 |
| 20260504013059 | 54 | 0 | 0.0 | 0.0 | 0.00 | 0.00 | 0.00 | 55 | 1015.5 |
| 20260504011552 | 55 | 0 | 0.0 | 1.0 | 0.00 | 0.00 | 0.00 | 54 | 1015.3 |
| 20260504004554 | 57 | 0 | 0.0 | 3.0 | 0.00 | 0.00 | 0.00 | 48 | 1014.9 |